Time,TemperatureF,DewpointF,PressureIn,WindDirection,WindDirectionDegrees,WindSpeedMPH,WindSpeedGustMPH,Humidity,HourlyPrecipIn,Conditions,Clouds,dailyrainin,SolarRadiationWatts/m^2,SoftwareType,DateUTC
2013-02-03 00:06:00,51.5,39.7,29.32,SE,130,6.0,7.0,64,0.00,,,0.00,0,Wunderground v.1.15,2013-02-02 23:06:00,
2013-02-03 00:16:00,51.6,39.4,29.32,South,190,8.0,8.0,63,0.00,,,0.00,0,Wunderground v.1.15,2013-02-02 23:16:00,
2013-02-03 00:21:00,51.6,39.8,29.32,SSE,164,8.0,8.0,64,0.00,,,0.00,0,Wunderground v.1.15,2013-02-02 23:21:00,
2013-02-03 00:31:00,51.5,40.1,29.32,SE,134,7.0,7.0,65,0.00,,,0.00,0,Wunderground v.1.15,2013-02-02 23:31:00,
2013-02-03 00:36:00,51.4,39.6,29.32,East,94,7.0,9.0,64,0.00,,,0.00,0,Wunderground v.1.15,2013-02-02 23:36:00,
2013-02-03 00:41:00,51.3,39.5,29.32,WSW,258,8.0,8.0,64,0.00,,,0.00,0,Wunderground v.1.15,2013-02-02 23:41:00,
2013-02-03 00:51:00,50.5,39.9,29.33,SSE,164,11.0,11.0,67,0.00,,,0.00,0,Wunderground v.1.15,2013-02-02 23:51:00,
2013-02-03 01:01:00,49.8,39.7,29.33,SSE,161,12.0,18.0,68,0.00,,,0.00,0,Wunderground v.1.15,2013-02-03 00:01:00,
2013-02-03 01:06:00,49.6,39.8,29.33,South,175,10.0,18.0,69,0.00,,,0.00,0,Wunderground v.1.15,2013-02-03 00:06:00,
2013-02-03 01:16:00,49.2,40.2,29.33,SSE,147,8.0,9.0,71,0.00,,,0.00,0,Wunderground v.1.15,2013-02-03 00:16:00,
2013-02-03 01:21:00,48.7,40.8,29.34,South,169,8.0,14.0,74,0.00,,,0.00,0,Wunderground v.1.15,2013-02-03 00:21:00,
2013-02-03 01:31:00,48.3,41.1,29.34,SSE,158,12.0,12.0,76,0.07,,,0.02,0,Wunderground v.1.15,2013-02-03 00:31:00,
2013-02-03 01:36:00,48.2,41.3,29.34,South,189,10.0,12.0,77,0.07,,,0.02,0,Wunderground v.1.15,2013-02-03 00:36:00,
2013-02-03 01:46:00,48.4,41.5,29.34,SSW,192,9.0,9.0,77,0.04,,,0.02,0,Wunderground v.1.15,2013-02-03 00:46:00,
2013-02-03 01:51:00,48.4,41.9,29.34,SSE,160,9.0,13.0,78,0.00,,,0.02,0,Wunderground v.1.15,2013-02-03 00:51:00,
2013-02-03 02:01:00,48.2,41.0,29.35,SSE,163,11.0,11.0,76,0.00,,,0.02,0,Wunderground v.1.15,2013-02-03 01:01:00,
2013-02-03 02:06:00,47.9,40.7,29.35,SSW,201,11.0,11.0,76,0.00,,,0.02,0,Wunderground v.1.15,2013-02-03 01:06:00,
2013-02-03 02:16:00,47.3,41.1,29.34,SSE,166,7.0,10.0,79,0.00,,,0.02,0,Wunderground v.1.15,2013-02-03 01:16:00,
2013-02-03 02:21:00,47.2,41.0,29.35,South,169,6.0,6.0,79,0.00,,,0.02,0,Wunderground v.1.15,2013-02-03 01:21:00,
2013-02-03 02:26:00,47.1,41.2,29.35,South,169,5.0,6.0,80,0.00,,,0.02,0,Wunderground v.1.15,2013-02-03 01:26:00,
2013-02-03 02:36:00,47.0,41.5,29.35,SSE,156,4.0,7.0,81,0.00,,,0.02,0,Wunderground v.1.15,2013-02-03 01:36:00,
2013-02-03 02:46:00,47.2,42.0,29.35,South,184,4.0,4.0,82,0.00,,,0.02,0,Wunderground v.1.15,2013-02-03 01:46:00,
2013-02-03 02:51:00,47.3,41.8,29.35,SW,217,3.0,4.0,81,0.00,,,0.02,0,Wunderground v.1.15,2013-02-03 01:51:00,
2013-02-03 03:01:00,47.6,41.7,29.35,SSE,167,4.0,5.0,80,0.00,,,0.02,0,Wunderground v.1.15,2013-02-03 02:01:00,
2013-02-03 03:06:00,47.8,41.9,29.35,SSE,159,4.0,5.0,80,0.00,,,0.02,0,Wunderground v.1.15,2013-02-03 02:06:00,
2013-02-03 03:16:00,48.0,41.1,29.34,SSE,151,4.0,6.0,77,0.00,,,0.02,0,Wunderground v.1.15,2013-02-03 02:16:00,
2013-02-03 03:26:00,48.3,41.1,29.34,SSE,158,5.0,6.0,76,0.00,,,0.02,0,Wunderground v.1.15,2013-02-03 02:26:00,
2013-02-03 03:31:00,48.4,40.8,29.34,South,182,5.0,6.0,75,0.00,,,0.02,0,Wunderground v.1.15,2013-02-03 02:31:00,
2013-02-03 03:36:00,48.5,40.9,29.35,South,169,4.0,6.0,75,0.00,,,0.02,0,Wunderground v.1.15,2013-02-03 02:36:00,
2013-02-03 03:46:00,48.5,40.9,29.35,SSE,163,3.0,3.0,75,0.00,,,0.02,0,Wunderground v.1.15,2013-02-03 02:46:00,
2013-02-03 03:51:00,48.4,40.8,29.35,SSE,148,3.0,3.0,75,0.00,,,0.02,0,Wunderground v.1.15,2013-02-03 02:51:00,
2013-02-03 03:56:00,48.4,40.8,29.35,SSE,157,4.0,5.0,75,0.00,,,0.02,0,Wunderground v.1.15,2013-02-03 02:56:00,
2013-02-03 04:06:00,48.1,40.5,29.35,SSE,148,2.0,3.0,75,0.00,,,0.02,0,Wunderground v.1.15,2013-02-03 03:06:00,
2013-02-03 04:11:00,48.0,40.5,29.35,SSE,148,1.0,1.0,75,0.00,,,0.02,0,Wunderground v.1.15,2013-02-03 03:11:00,
2013-02-03 04:21:00,48.1,40.9,29.36,SSW,193,2.0,4.0,76,0.00,,,0.02,0,Wunderground v.1.15,2013-02-03 03:21:00,
2013-02-03 04:26:00,48.3,41.1,29.36,SSE,162,3.0,4.0,76,0.00,,,0.02,0,Wunderground v.1.15,2013-02-03 03:26:00,
2013-02-03 04:36:00,48.4,41.9,29.37,SSE,167,5.0,5.0,78,0.00,,,0.02,0,Wunderground v.1.15,2013-02-03 03:36:00,
2013-02-03 04:46:00,48.0,41.8,29.37,SSE,147,3.0,4.0,79,0.00,,,0.02,0,Wunderground v.1.15,2013-02-03 03:46:00,
2013-02-03 04:51:00,47.9,42.0,29.37,South,173,2.0,2.0,80,0.00,,,0.02,0,Wunderground v.1.15,2013-02-03 03:51:00,
2013-02-03 05:01:00,47.5,41.6,29.38,SSE,153,1.0,1.0,80,0.00,,,0.02,0,Wunderground v.1.15,2013-02-03 04:01:00,
2013-02-03 05:06:00,47.3,41.8,29.38,ESE,121,2.0,2.0,81,0.00,,,0.02,0,Wunderground v.1.15,2013-02-03 04:06:00,
2013-02-03 05:16:00,46.8,41.9,29.39,WSW,256,2.0,2.0,83,0.00,,,0.02,0,Wunderground v.1.15,2013-02-03 04:16:00,
2013-02-03 05:21:00,46.4,41.8,29.39,WNW,300,3.0,3.0,84,0.00,,,0.03,0,Wunderground v.1.15,2013-02-03 04:21:00,
2013-02-03 05:31:00,45.7,42.1,29.39,East,83,3.0,3.0,87,0.06,,,0.04,0,Wunderground v.1.15,2013-02-03 04:31:00,
2013-02-03 05:36:00,45.5,41.9,29.39,ESE,114,2.0,3.0,87,0.06,,,0.04,0,Wunderground v.1.15,2013-02-03 04:36:00,
2013-02-03 05:41:00,45.3,42.2,29.39,SE,142,1.0,1.0,89,0.05,,,0.04,0,Wunderground v.1.15,2013-02-03 04:41:00,
2013-02-03 05:51:00,44.9,42.1,29.39,ESE,120,1.0,1.0,90,0.04,,,0.05,0,Wunderground v.1.15,2013-02-03 04:51:00,
2013-02-03 06:06:00,44.6,41.8,29.40,South,173,0.0,1.0,90,0.00,,,0.05,0,Wunderground v.1.15,2013-02-03 05:06:00,
2013-02-03 06:16:00,44.3,41.8,29.40,East,92,1.0,1.0,91,0.00,,,0.05,0,Wunderground v.1.15,2013-02-03 05:16:00,
2013-02-03 06:26:00,44.2,41.7,29.41,ENE,78,3.0,5.0,91,0.00,,,0.05,0,Wunderground v.1.15,2013-02-03 05:26:00,
2013-02-03 06:31:00,44.2,41.7,29.41,ENE,62,5.0,5.0,91,0.00,,,0.05,0,Wunderground v.1.15,2013-02-03 05:31:00,
2013-02-03 06:41:00,44.2,41.5,29.42,ENE,66,5.0,5.0,90,0.00,,,0.05,0,Wunderground v.1.15,2013-02-03 05:41:00,
2013-02-03 06:46:00,44.2,41.2,29.42,ENE,63,5.0,5.0,89,0.00,,,0.05,0,Wunderground v.1.15,2013-02-03 05:46:00,
2013-02-03 06:56:00,44.1,40.8,29.42,ENE,77,6.0,9.0,88,0.00,,,0.05,0,Wunderground v.1.15,2013-02-03 05:56:00,
2013-02-03 07:01:00,44.1,40.8,29.42,ENE,67,5.0,5.0,88,0.00,,,0.05,0,Wunderground v.1.15,2013-02-03 06:01:00,
2013-02-03 07:06:00,44.2,40.6,29.43,ENE,67,5.0,9.0,87,0.00,,,0.05,0,Wunderground v.1.15,2013-02-03 06:06:00,
2013-02-03 07:16:00,44.3,40.7,29.43,East,84,5.0,5.0,87,0.00,,,0.05,0,Wunderground v.1.15,2013-02-03 06:16:00,
2013-02-03 07:21:00,44.3,40.4,29.43,ENE,76,5.0,5.0,86,0.00,,,0.05,7,Wunderground v.1.15,2013-02-03 06:21:00,
2013-02-03 07:31:00,44.3,40.4,29.44,ENE,77,5.0,5.0,86,0.00,,,0.05,12,Wunderground v.1.15,2013-02-03 06:31:00,
2013-02-03 07:36:00,44.3,40.1,29.44,ENE,62,5.0,5.0,85,0.00,,,0.05,19,Wunderground v.1.15,2013-02-03 06:36:00,
2013-02-03 07:41:00,44.4,40.2,29.44,ENE,65,5.0,5.0,85,0.00,,,0.05,28,Wunderground v.1.15,2013-02-03 06:41:00,
2013-02-03 07:51:00,44.5,40.3,29.45,ENE,65,4.0,7.0,85,0.00,,,0.05,42,Wunderground v.1.15,2013-02-03 06:51:00,
2013-02-03 07:56:00,44.6,40.1,29.45,NE,43,6.0,9.0,84,0.00,,,0.05,44,Wunderground v.1.15,2013-02-03 06:56:00,
2013-02-03 08:06:00,44.8,40.3,29.46,ENE,60,5.0,6.0,84,0.00,,,0.05,53,Wunderground v.1.15,2013-02-03 07:06:00,
2013-02-03 08:16:00,45.2,40.3,29.47,NE,51,5.0,6.0,83,0.00,,,0.05,60,Wunderground v.1.15,2013-02-03 07:16:00,
2013-02-03 08:21:00,45.4,40.5,29.47,NE,34,5.0,6.0,83,0.00,,,0.05,67,Wunderground v.1.15,2013-02-03 07:21:00,
2013-02-03 08:26:00,45.5,40.3,29.47,ENE,58,6.0,12.0,82,0.00,,,0.05,77,Wunderground v.1.15,2013-02-03 07:26:00,
2013-02-03 08:36:00,46.0,40.5,29.48,ENE,76,7.0,7.0,81,0.00,,,0.05,149,Wunderground v.1.15,2013-02-03 07:36:00,
2013-02-03 08:46:00,46.4,40.6,29.49,NNE,32,7.0,10.0,80,0.00,,,0.05,195,Wunderground v.1.15,2013-02-03 07:46:00,
2013-02-03 08:51:00,46.7,40.9,29.49,ENE,65,7.0,7.0,80,0.00,,,0.05,200,Wunderground v.1.15,2013-02-03 07:51:00,
2013-02-03 09:01:00,46.9,40.7,29.50,NNE,28,7.0,8.0,79,0.00,,,0.05,141,Wunderground v.1.15,2013-02-03 08:01:00,
2013-02-03 09:06:00,47.0,40.8,29.50,NNE,24,8.0,8.0,79,0.00,,,0.05,128,Wunderground v.1.15,2013-02-03 08:06:00,
2013-02-03 09:11:00,47.0,40.8,29.51,NE,40,7.0,7.0,79,0.00,,,0.05,137,Wunderground v.1.15,2013-02-03 08:11:00,
2013-02-03 09:21:00,47.0,40.8,29.52,NNE,27,8.0,9.0,79,0.00,,,0.05,179,Wunderground v.1.15,2013-02-03 08:21:00,
2013-02-03 09:26:00,47.1,40.9,29.52,NNE,32,8.0,9.0,79,0.00,,,0.05,84,Wunderground v.1.15,2013-02-03 08:26:00,
2013-02-03 09:36:00,47.3,40.8,29.52,NE,44,9.0,13.0,78,0.00,,,0.05,104,Wunderground v.1.15,2013-02-03 08:36:00,
2013-02-03 09:41:00,47.4,40.9,29.53,ENE,59,8.0,8.0,78,0.00,,,0.05,149,Wunderground v.1.15,2013-02-03 08:41:00,
2013-02-03 09:51:00,47.7,41.2,29.54,NE,38,9.0,9.0,78,0.00,,,0.05,174,Wunderground v.1.15,2013-02-03 08:51:00,
2013-02-03 09:56:00,48.0,41.5,29.54,NE,34,10.0,10.0,78,0.00,,,0.05,218,Wunderground v.1.15,2013-02-03 08:56:00,
2013-02-03 10:06:00,48.3,41.4,29.55,East,80,8.0,10.0,77,0.00,,,0.05,142,Wunderground v.1.15,2013-02-03 09:06:00,
2013-02-03 10:11:00,48.3,41.4,29.55,ENE,59,9.0,15.0,77,0.00,,,0.05,148,Wunderground v.1.15,2013-02-03 09:11:00,
2013-02-03 10:21:00,48.5,42.0,29.56,NE,40,9.0,10.0,78,0.00,,,0.05,144,Wunderground v.1.15,2013-02-03 09:21:00,
2013-02-03 10:26:00,48.6,42.0,29.56,ENE,57,8.0,10.0,78,0.00,,,0.05,221,Wunderground v.1.15,2013-02-03 09:26:00,
2013-02-03 10:36:00,49.1,41.9,29.57,NE,35,8.0,12.0,76,0.00,,,0.05,98,Wunderground v.1.15,2013-02-03 09:36:00,
2013-02-03 10:46:00,49.0,41.8,29.58,NE,42,9.0,9.0,76,0.00,,,0.05,186,Wunderground v.1.15,2013-02-03 09:46:00,
2013-02-03 10:51:00,49.1,41.9,29.58,NE,47,7.0,7.0,76,0.00,,,0.05,192,Wunderground v.1.15,2013-02-03 09:51:00,
2013-02-03 11:01:00,49.9,42.3,29.59,NNE,28,6.0,6.0,75,0.00,,,0.05,213,Wunderground v.1.15,2013-02-03 10:01:00,
2013-02-03 11:06:00,50.0,42.0,29.59,NE,43,6.0,7.0,74,0.00,,,0.05,158,Wunderground v.1.15,2013-02-03 10:06:00,
2013-02-03 11:11:00,49.9,42.3,29.60,ENE,61,6.0,6.0,75,0.00,,,0.05,162,Wunderground v.1.15,2013-02-03 10:11:00,
2013-02-03 11:21:00,49.8,41.8,29.60,NE,44,7.0,7.0,74,0.00,,,0.05,195,Wunderground v.1.15,2013-02-03 10:21:00,
2013-02-03 11:26:00,49.9,41.9,29.60,NE,46,6.0,7.0,74,0.00,,,0.05,211,Wunderground v.1.15,2013-02-03 10:26:00,
2013-02-03 11:36:00,50.4,42.1,29.60,East,80,5.0,9.0,73,0.00,,,0.05,185,Wunderground v.1.15,2013-02-03 10:36:00,
2013-02-03 11:41:00,50.6,42.3,29.61,ENE,59,4.0,8.0,73,0.00,,,0.05,162,Wunderground v.1.15,2013-02-03 10:41:00,
2013-02-03 11:51:00,50.6,41.9,29.61,ENE,75,4.0,4.0,72,0.00,,,0.05,174,Wunderground v.1.15,2013-02-03 10:51:00,
2013-02-03 11:56:00,50.7,41.6,29.61,ENE,67,4.0,4.0,71,0.00,,,0.05,176,Wunderground v.1.15,2013-02-03 10:56:00,
2013-02-03 12:06:00,50.8,41.4,29.61,ENE,74,5.0,8.0,70,0.00,,,0.05,155,Wunderground v.1.15,2013-02-03 11:06:00,
2013-02-03 12:11:00,50.9,41.5,29.62,ENE,65,5.0,5.0,70,0.00,,,0.05,172,Wunderground v.1.15,2013-02-03 11:11:00,
2013-02-03 12:16:00,51.1,41.7,29.62,ENE,69,4.0,5.0,70,0.00,,,0.05,176,Wunderground v.1.15,2013-02-03 11:16:00,
2013-02-03 12:26:00,51.3,41.8,29.62,NE,48,4.0,4.0,70,0.00,,,0.05,160,Wunderground v.1.15,2013-02-03 11:26:00,
2013-02-03 12:36:00,51.5,41.3,29.62,ENE,67,5.0,5.0,68,0.00,,,0.05,223,Wunderground v.1.15,2013-02-03 11:36:00,
2013-02-03 12:41:00,51.6,41.0,29.62,NE,49,4.0,4.0,67,0.00,,,0.05,264,Wunderground v.1.15,2013-02-03 11:41:00,
2013-02-03 12:51:00,52.2,42.0,29.63,NE,54,2.0,2.0,68,0.00,,,0.05,223,Wunderground v.1.15,2013-02-03 11:51:00,
2013-02-03 12:56:00,52.2,42.0,29.63,NE,46,1.0,2.0,68,0.00,,,0.05,193,Wunderground v.1.15,2013-02-03 11:56:00,
2013-02-03 13:06:00,52.0,41.8,29.63,ENE,57,3.0,3.0,68,0.00,,,0.05,216,Wunderground v.1.15,2013-02-03 12:06:00,
2013-02-03 13:11:00,52.1,41.5,29.63,ENE,77,2.0,2.0,67,0.00,,,0.05,237,Wunderground v.1.15,2013-02-03 12:11:00,
2013-02-03 13:21:00,52.5,41.5,29.63,ESE,106,2.0,2.0,66,0.00,,,0.05,220,Wunderground v.1.15,2013-02-03 12:21:00,
2013-02-03 13:26:00,52.6,41.6,29.64,NE,47,1.0,2.0,66,0.00,,,0.05,193,Wunderground v.1.15,2013-02-03 12:26:00,
2013-02-03 13:31:00,52.5,41.1,29.64,NNE,17,1.0,1.0,65,0.00,,,0.05,149,Wunderground v.1.15,2013-02-03 12:31:00,
2013-02-03 13:41:00,52.6,41.2,29.64,ENE,76,3.0,3.0,65,0.00,,,0.05,134,Wunderground v.1.15,2013-02-03 12:41:00,
2013-02-03 13:51:00,52.6,41.2,29.65,ENE,61,2.0,3.0,65,0.00,,,0.05,127,Wunderground v.1.15,2013-02-03 12:51:00,
2013-02-03 13:56:00,52.7,41.7,29.65,NE,42,2.0,3.0,66,0.00,,,0.05,118,Wunderground v.1.15,2013-02-03 12:56:00,
2013-02-03 14:06:00,52.8,41.7,29.66,ENE,67,1.0,2.0,66,0.00,,,0.05,135,Wunderground v.1.15,2013-02-03 13:06:00,
2013-02-03 14:11:00,52.9,41.8,29.66,ENE,67,1.0,1.0,66,0.00,,,0.05,142,Wunderground v.1.15,2013-02-03 13:11:00,
2013-02-03 14:21:00,52.9,42.2,29.67,East,81,0.0,0.0,67,0.00,,,0.05,130,Wunderground v.1.15,2013-02-03 13:21:00,
2013-02-03 14:31:00,53.0,42.7,29.67,SE,130,0.0,0.0,68,0.00,,,0.05,134,Wunderground v.1.15,2013-02-03 13:31:00,
2013-02-03 14:36:00,53.2,42.9,29.67,East,82,0.0,1.0,68,0.00,,,0.05,132,Wunderground v.1.15,2013-02-03 13:36:00,
2013-02-03 14:46:00,53.2,43.3,29.68,East,95,0.0,2.0,69,0.00,,,0.05,123,Wunderground v.1.15,2013-02-03 13:46:00,
2013-02-03 14:51:00,53.3,43.0,29.68,ENE,74,0.0,0.0,68,0.00,,,0.05,104,Wunderground v.1.15,2013-02-03 13:51:00,
2013-02-03 14:56:00,53.2,42.5,29.68,SE,128,1.0,1.0,67,0.00,,,0.05,104,Wunderground v.1.15,2013-02-03 13:56:00,
2013-02-03 15:06:00,53.0,42.7,29.69,East,81,0.0,1.0,68,0.00,,,0.05,111,Wunderground v.1.15,2013-02-03 14:06:00,
2013-02-03 15:16:00,53.1,42.0,29.70,ENE,67,1.0,2.0,66,0.00,,,0.05,114,Wunderground v.1.15,2013-02-03 14:16:00,
2013-02-03 15:21:00,53.2,42.1,29.70,NE,49,1.0,1.0,66,0.00,,,0.05,116,Wunderground v.1.15,2013-02-03 14:21:00,
2013-02-03 15:31:00,53.3,41.8,29.71,ENE,71,1.0,1.0,65,0.00,,,0.05,130,Wunderground v.1.15,2013-02-03 14:31:00,
2013-02-03 15:36:00,53.3,41.0,29.71,ESE,109,1.0,1.0,63,0.00,,,0.05,134,Wunderground v.1.15,2013-02-03 14:36:00,
2013-02-03 15:41:00,53.3,41.0,29.71,East,95,1.0,1.0,63,0.00,,,0.05,146,Wunderground v.1.15,2013-02-03 14:41:00,
2013-02-03 15:46:00,53.4,40.3,29.71,ENE,62,1.0,2.0,61,0.00,,,0.05,155,Wunderground v.1.15,2013-02-03 14:46:00,
2013-02-03 15:56:00,53.5,40.4,29.72,ENE,71,3.0,3.0,61,0.00,,,0.05,118,Wunderground v.1.15,2013-02-03 14:56:00,
2013-02-03 16:06:00,53.5,39.1,29.72,SSE,149,3.0,3.0,58,0.00,,,0.05,81,Wunderground v.1.15,2013-02-03 15:06:00,
2013-02-03 16:11:00,53.5,37.7,29.73,East,98,4.0,4.0,55,0.00,,,0.05,79,Wunderground v.1.15,2013-02-03 15:11:00,
2013-02-03 16:21:00,53.6,37.3,29.73,ENE,62,4.0,4.0,54,0.00,,,0.05,151,Wunderground v.1.15,2013-02-03 15:21:00,
2013-02-03 16:26:00,53.7,37.0,29.73,NE,55,5.0,7.0,53,0.00,,,0.05,139,Wunderground v.1.15,2013-02-03 15:26:00,
2013-02-03 16:36:00,53.6,35.9,29.74,ENE,61,6.0,12.0,51,0.00,,,0.05,69,Wunderground v.1.15,2013-02-03 15:36:00,
2013-02-03 16:41:00,53.5,36.3,29.75,ENE,65,7.0,7.0,52,0.00,,,0.05,33,Wunderground v.1.15,2013-02-03 15:41:00,
2013-02-03 16:46:00,53.3,35.6,29.75,North,360,6.0,7.0,51,0.00,,,0.05,30,Wunderground v.1.15,2013-02-03 15:46:00,
2013-02-03 16:56:00,52.8,34.7,29.76,NE,52,4.0,7.0,50,0.00,,,0.05,25,Wunderground v.1.15,2013-02-03 15:56:00,
2013-02-03 17:01:00,52.7,35.1,29.76,ENE,64,6.0,7.0,51,0.00,,,0.05,21,Wunderground v.1.15,2013-02-03 16:01:00,
2013-02-03 17:11:00,52.4,35.3,29.76,East,95,7.0,7.0,52,0.00,,,0.05,12,Wunderground v.1.15,2013-02-03 16:11:00,
2013-02-03 17:21:00,52.1,35.0,29.77,ENE,66,6.0,6.0,52,0.00,,,0.05,5,Wunderground v.1.15,2013-02-03 16:21:00,
2013-02-03 17:31:00,51.5,34.9,29.78,NE,37,2.0,2.0,53,0.00,,,0.05,0,Wunderground v.1.15,2013-02-03 16:31:00,
2013-02-03 17:36:00,51.2,35.1,29.78,NE,36,1.0,2.0,54,0.00,,,0.05,0,Wunderground v.1.15,2013-02-03 16:36:00,
2013-02-03 17:46:00,50.8,33.8,29.79,North,5,3.0,4.0,52,0.00,,,0.05,0,Wunderground v.1.15,2013-02-03 16:46:00,
2013-02-03 17:51:00,50.6,33.6,29.79,North,350,3.0,3.0,52,0.00,,,0.05,0,Wunderground v.1.15,2013-02-03 16:51:00,
2013-02-03 18:01:00,50.2,33.2,29.80,NW,323,4.0,4.0,52,0.00,,,0.05,0,Wunderground v.1.15,2013-02-03 17:01:00,
2013-02-03 18:06:00,49.9,33.4,29.80,NNW,332,5.0,7.0,53,0.00,,,0.05,0,Wunderground v.1.15,2013-02-03 17:06:00,
2013-02-03 18:11:00,49.6,33.2,29.81,NNW,329,6.0,6.0,53,0.00,,,0.05,0,Wunderground v.1.15,2013-02-03 17:11:00,
2013-02-03 18:16:00,49.3,32.9,29.81,North,360,6.0,6.0,53,0.00,,,0.05,0,Wunderground v.1.15,2013-02-03 17:16:00,
2013-02-03 18:26:00,48.7,32.3,29.81,NNW,346,7.0,9.0,53,0.00,,,0.05,0,Wunderground v.1.15,2013-02-03 17:26:00,
2013-02-03 18:31:00,48.6,32.2,29.82,NNW,342,7.0,7.0,53,0.00,,,0.05,0,Wunderground v.1.15,2013-02-03 17:31:00,
2013-02-03 18:41:00,48.2,31.9,29.82,North,32767,-999.0,0.0,53,0.00,,,0.05,0,Wunderground v.1.15,2013-02-03 17:41:00,
2013-02-03 18:46:00,48.0,32.1,29.82,North,5,8.0,8.0,54,0.00,,,0.05,0,Wunderground v.1.15,2013-02-03 17:46:00,
2013-02-03 18:51:00,47.9,31.6,29.83,NNW,344,4.0,6.0,53,0.00,,,0.05,0,Wunderground v.1.15,2013-02-03 17:51:00,
2013-02-03 19:01:00,47.6,31.3,29.83,North,5,6.0,9.0,53,0.00,,,0.05,0,Wunderground v.1.15,2013-02-03 18:01:00,
2013-02-03 19:06:00,47.5,31.2,29.84,North,360,6.0,9.0,53,0.00,,,0.05,0,Wunderground v.1.15,2013-02-03 18:06:00,
2013-02-03 19:16:00,47.2,30.9,29.84,North,9,6.0,6.0,53,0.00,,,0.05,0,Wunderground v.1.15,2013-02-03 18:16:00,
2013-02-03 19:21:00,47.0,30.7,29.84,NNW,342,6.0,8.0,53,0.00,,,0.05,0,Wunderground v.1.15,2013-02-03 18:21:00,
2013-02-03 19:31:00,46.5,30.7,29.85,NW,321,5.0,5.0,54,0.00,,,0.05,0,Wunderground v.1.15,2013-02-03 18:31:00,
2013-02-03 19:36:00,46.4,30.6,29.85,North,11,4.0,6.0,54,0.00,,,0.05,0,Wunderground v.1.15,2013-02-03 18:36:00,
2013-02-03 19:41:00,46.4,30.6,29.85,North,5,5.0,5.0,54,0.00,,,0.05,0,Wunderground v.1.15,2013-02-03 18:41:00,
2013-02-03 19:46:00,46.2,30.5,29.86,NNE,17,5.0,7.0,54,0.00,,,0.05,0,Wunderground v.1.15,2013-02-03 18:46:00,
2013-02-03 19:56:00,46.2,30.0,29.87,NNW,331,5.0,6.0,53,0.00,,,0.05,0,Wunderground v.1.15,2013-02-03 18:56:00,
2013-02-03 20:01:00,46.3,30.1,29.87,NNW,338,6.0,6.0,53,0.00,,,0.05,0,Wunderground v.1.15,2013-02-03 19:01:00,
2013-02-03 20:11:00,46.1,30.4,29.88,NNE,13,4.0,4.0,54,0.00,,,0.05,0,Wunderground v.1.15,2013-02-03 19:11:00,
2013-02-03 20:21:00,46.1,30.4,29.89,NNE,26,5.0,6.0,54,0.00,,,0.05,0,Wunderground v.1.15,2013-02-03 19:21:00,
2013-02-03 20:26:00,45.9,30.2,29.89,NNE,21,4.0,6.0,54,0.00,,,0.05,0,Wunderground v.1.15,2013-02-03 19:26:00,
2013-02-03 20:31:00,45.8,30.1,29.89,NNW,336,5.0,5.0,54,0.00,,,0.05,0,Wunderground v.1.15,2013-02-03 19:31:00,
2013-02-03 20:36:00,45.8,30.1,29.90,NNW,340,6.0,6.0,54,0.00,,,0.05,0,Wunderground v.1.15,2013-02-03 19:36:00,
2013-02-03 20:46:00,45.7,30.0,29.90,NNE,24,5.0,6.0,54,0.00,,,0.05,0,Wunderground v.1.15,2013-02-03 19:46:00,
2013-02-03 20:51:00,45.7,30.0,29.90,NE,49,5.0,5.0,54,0.00,,,0.05,0,Wunderground v.1.15,2013-02-03 19:51:00,
2013-02-03 20:56:00,45.6,30.3,29.91,NE,55,5.0,5.0,55,0.00,,,0.05,0,Wunderground v.1.15,2013-02-03 19:56:00,
2013-02-03 21:06:00,45.5,30.3,29.91,ENE,71,4.0,4.0,55,0.00,,,0.05,0,Wunderground v.1.15,2013-02-03 20:06:00,
2013-02-03 21:16:00,45.4,30.2,29.91,NNE,23,4.0,6.0,55,0.00,,,0.05,0,Wunderground v.1.15,2013-02-03 20:16:00,
2013-02-03 21:21:00,45.2,30.0,29.91,NNE,24,4.0,6.0,55,0.00,,,0.05,0,Wunderground v.1.15,2013-02-03 20:21:00,
2013-02-03 21:31:00,45.0,29.8,29.92,ENE,61,3.0,3.0,55,0.00,,,0.05,0,Wunderground v.1.15,2013-02-03 20:31:00,
2013-02-03 21:36:00,44.9,30.1,29.92,NE,45,3.0,3.0,56,0.00,,,0.05,0,Wunderground v.1.15,2013-02-03 20:36:00,
2013-02-03 21:41:00,45.0,30.2,29.92,NE,40,3.0,3.0,56,0.00,,,0.05,0,Wunderground v.1.15,2013-02-03 20:41:00,
2013-02-03 21:46:00,44.9,29.7,29.92,NNW,347,4.0,4.0,55,0.00,,,0.05,0,Wunderground v.1.15,2013-02-03 20:46:00,
2013-02-03 21:56:00,45.0,29.3,29.92,NE,40,5.0,9.0,54,0.00,,,0.05,0,Wunderground v.1.15,2013-02-03 20:56:00,
2013-02-03 22:06:00,45.1,28.5,29.92,ENE,74,6.0,6.0,52,0.00,,,0.05,0,Wunderground v.1.15,2013-02-03 21:06:00,
2013-02-03 22:11:00,45.0,28.4,29.93,NNE,16,5.0,8.0,52,0.00,,,0.05,0,Wunderground v.1.15,2013-02-03 21:11:00,
2013-02-03 22:21:00,44.8,28.2,29.93,NW,317,5.0,5.0,52,0.00,,,0.05,0,Wunderground v.1.15,2013-02-03 21:21:00,
2013-02-03 22:26:00,44.7,28.1,29.93,NNW,333,5.0,8.0,52,0.00,,,0.05,0,Wunderground v.1.15,2013-02-03 21:26:00,
2013-02-03 22:36:00,44.6,28.5,29.93,NE,34,4.0,6.0,53,0.00,,,0.05,0,Wunderground v.1.15,2013-02-03 21:36:00,
2013-02-03 22:41:00,44.5,28.4,29.93,ENE,63,3.0,5.0,53,0.00,,,0.05,0,Wunderground v.1.15,2013-02-03 21:41:00,
2013-02-03 22:51:00,44.4,28.3,29.93,NE,38,3.0,6.0,53,0.00,,,0.05,0,Wunderground v.1.15,2013-02-03 21:51:00,
2013-02-03 22:56:00,44.3,28.2,29.94,NNW,340,3.0,6.0,53,0.00,,,0.05,0,Wunderground v.1.15,2013-02-03 21:56:00,
2013-02-03 23:01:00,44.1,28.0,29.94,North,355,5.0,5.0,53,0.00,,,0.05,0,Wunderground v.1.15,2013-02-03 22:01:00,
2013-02-03 23:11:00,44.0,28.0,29.94,North,355,5.0,5.0,53,0.00,,,0.05,0,Wunderground v.1.15,2013-02-03 22:11:00,
2013-02-03 23:16:00,43.9,27.9,29.94,NNE,25,5.0,5.0,53,0.00,,,0.05,0,Wunderground v.1.15,2013-02-03 22:16:00,
2013-02-03 23:26:00,43.8,27.8,29.95,NNW,336,4.0,7.0,53,0.00,,,0.05,0,Wunderground v.1.15,2013-02-03 22:26:00,
2013-02-03 23:36:00,43.6,27.6,29.95,NNW,342,5.0,7.0,53,0.00,,,0.05,0,Wunderground v.1.15,2013-02-03 22:36:00,
2013-02-03 23:41:00,43.7,27.7,29.95,NE,53,5.0,5.0,53,0.00,,,0.05,0,Wunderground v.1.15,2013-02-03 22:41:00,
2013-02-03 23:51:00,43.7,27.7,29.96,NNW,331,5.0,5.0,53,0.00,,,0.05,0,Wunderground v.1.15,2013-02-03 22:51:00,
2013-02-03 23:56:00,43.6,27.6,29.97,NNE,30,4.0,5.0,53,0.00,,,0.05,0,Wunderground v.1.15,2013-02-03 22:56:00,